Simultaneous Nadir Overpasses (SNOs) Predictions

Prediction of SNOs between GOES-14 and NOAA-20 Satellite Orbit:

Table of predicted SNOs for the next 14.0 days since TLE Epoch: 4/5/2019
Index Date Time (GOES-14) GOES-14 Lat,Lon NOAA-20 Lat,Lon Distance(km) Time Diff (sec)
1 04/06/2019 20:36:23 -0.11,-104.35 -0.77,-107.35 341.48 80
2 04/07/2019 20:14:57 -0.12,-104.34 0.21,-102.81 174.24 80
3 04/09/2019 08:36:46 0.11,-104.39 0.92,-108.09 420.46 80
4 04/10/2019 08:20:40 0.12,-104.40 -0.05,-103.55 96.18 80
5 04/12/2019 20:23:52 -0.12,-104.34 -0.10,-104.33 2.72 80
6 04/15/2019 08:24:14 0.13,-104.37 0.31,-105.06 79.33 80
7 04/16/2019 08:08:09 0.13,-104.37 -0.73,-100.53 437.34 80
8 04/17/2019 20:30:06 -0.12,-104.33 -0.45,-105.84 171.96 80
9 04/18/2019 20:08:40 -0.13,-104.32 0.52,-101.30 343.67 80




NCC Satellite Simultaneous Nadir Overpasses (SNOs) Prediction Service
